Location: Central Coast NSW, Australia
(33.2407°S, 151.4316°E)
Time: 13:37:30
(UTC+11:00)

Tiangong 2 - Visible Passes

Search period start: 20 January 2019 00:00
Search period end: 30 January 2019 00:00
Orbit: 380 x 392 km, 42.8° (Epoch: 19 January)

Date Brightness Start Highest point End Pass type
(mag) Time Alt. Az. Time Alt. Az. Time Alt. Az.
20 Jan 2.6 21:21:54 10° SW 21:24:46 29° SSE 21:26:21 19° ESE visible
20 Jan 4.5 22:58:35 10° WSW 22:58:35 10° WSW 22:58:35 10° WSW visible
21 Jan 1.6 21:59:27 10° WSW 22:02:07 58° WSW 22:02:07 58° WSW visible
22 Jan 1.7 21:00:30 10° SW 21:03:38 49° SSE 21:05:42 18° E visible
22 Jan 4.3 22:37:50 10° W 22:37:56 10° W 22:37:56 10° W visible
23 Jan 1.9 21:38:19 10° WSW 21:41:20 38° NW 21:41:34 38° NNW visible
24 Jan 1.1 20:39:10 10° WSW 20:42:22 82° NNW 20:45:15 12° NE visible
25 Jan 3.2 21:17:34 10° W 21:19:53 19° NW 21:21:15 15° N visible
